CYGNSS FM08

operational
NORAD ID: 41888 Int'l Des: 2016-078 Owner: LARCN/SWRIB Country: US
LEOCIRCULAR
追跡 地上

CYGNSS FM08について

説明を読み込み中...

リアルタイム位置

3D地球を読み込み中...

次回通過

高度履歴

Altitude vs Time

uPlot chart will show altitude changes over time

軌道要素

1 41888U 16078E 26072.62456750 .00030385 00000-0 44163-3 0 9993
2 41888 34.9433 154.9395 0007643 341.3808 18.6635 15.54723733514065
Epoch: Mar 13, 2026 • Age: 24 hours

現在のステータス

高度 397.0 km
速度 7.68 km/s
衛星直下点 -1.89°S, 25.26°W
打ち上げ日 Dec 15, 2016
運用期間 9.2 years
タイプ other

技術仕様

分類 Payload
質量 29.00 kg
乾燥質量 29.00 kg
総質量 29.00 kg
長さ 0.27 m
直径 0.64 m
スパン 1.70 m
形状 Trunc prism+2 pan
製造者 SSTUS
バスタイプ CYGNSS
フェーズステータス In Orbit
所有者/国 LARCN/SWRIB/US

大規模コンステレーション

Loading constellations...